Tracking 19170 objects as of 23-May-2018
HD Live streaming from Space Station
objects crossing your sky now

COSMOS 700

Track COSMOS 700 now!
10-day predictions
COSMOS 700 is classified as:


NORAD ID: 7593
Int'l Code: 1974-105A
Perigee: 965.7 km
Apogee: 999.7 km
Inclination: 83.0 °
Period: 104.6 minutes
Semi major axis: 7353 km
RCS: 1.9963 m2 (large)
Launch date: December 26, 1974
Source: Commonwealth of Independent States (former USSR) (CIS)
Launch site: PLESETSK MISSILE AND SPACE COMPLEX (PKMTR)
aabbcc
Your satellite tracking list
Your tracking list is empty




NASA's NSSDC Master Catalog

Two Line Element Set (TLE):
1  7593U 74105A   18142.92372830 +.00000038 +00000-0 +22901-4 0  9990
2  7593 082.9527 075.2623 0023176 270.7092 156.3261 13.76715467179907
Source of the keplerian elements: AFSPC